Regional Weather Roundup
Issued by NWS

Home | Current Version | Previous Version | Graphics & Text | Print | Product List | Glossary On
Versions: 1 2 3 4 5 6 7 8 9 10 11 12 13 14 15 16 17 18 19 20 21 22 23 24 25 26 27 28 29 30 31 32 33 34 35 36 37 38 39 40 41 42 43 44 45 46 47 48 49 50
250
ASUS45 KCYS 230110
RWRWY

WYOMING REGIONAL WEATHER ROUNDUP
NATIONAL WEATHER SERVICE CHEYENNE WY
700 PM MDT MON MAY 22 2017

NOTE:  "FAIR" INDICATES FEW OR NO CLOUDS BELOW 12,000 FEET
WITH NO SIGNIFICANT WEATHER AND/OR OBSTRUCTIONS TO VISIBILITY.

WYZ001-230200-
YELLOWSTONE NATIONAL PARK

CITY           SKY/WX    TMP DP  RH WIND       PRES   REMARKS
LK YELLOWSTONE   N/A     46  34  62 CALM      30.36S
W YELLOWSTONE  NOT AVBL

$$
WYZ002>013-054>058-071-098>099-230200-
NORTHERN WYOMING

CITY           SKY/WX    TMP DP  RH WIND       PRES   REMARKS
JACKSON        MOSUNNY   57  32  38 N13       30.25R
CODY           FAIR      55  39  54 SW8       30.25S
GREYBULL       PTSUNNY   63  40  42 NW13G21   30.18S
WORLAND        FAIR      60  40  47 NW17      30.20R
SHERIDAN       FAIR      60  42  51 N10G18    30.17F
BUFFALO        FAIR      51  39  63 NW10      30.20S
GILLETTE       FAIR      53  42  66 CALM      30.16S
HULETT         FAIR      48  37  66 NE10G23   30.17R
NEWCASTLE      FAIR      50  36  57 N8        30.15S

$$
WYZ014>020-022>026-101>103-230200-
CENTRAL WYOMING

CITY           SKY/WX    TMP DP  RH WIND       PRES   REMARKS
BIG PINEY      CLOUDY    58  30  34 N17G25    30.25R
PINEDALE       CLOUDY    54  32  43 N17G24    30.27R
DUBOIS         NOT AVBL
LANDER         CLOUDY    45  36  70 W13       30.28F
RIVERTON       CLOUDY    47  40  76 SW13      30.27F
CASPER         LGT RAIN  43  40  89 NW10G20   30.23R
DOUGLAS        LGT RAIN  47  37  68 N10       30.20R

$$
WYZ021-027>030-104>119-230200-
SOUTHERN WYOMING

CITY           SKY/WX    TMP DP  RH WIND       PRES   REMARKS
EVANSTON       LGT RAIN  61  39  44 W18G26    30.25S
KEMMERER         N/A     57  28  33 NW16G22   30.25S
FORT BRIDGER   FAIR      63  34  34 NW17G24   30.26
ROCK SPRINGS   CLOUDY    44  32  62 E22G33    30.28R
RAWLINS        CLOUDY    40  34  79 S5        30.28F
SARATOGA       LGT RAIN  36  36 100 N6        30.30S WCI  31
LARAMIE        PTSUNNY   37  34  89 NW16      30.24R WCI  28
CHEYENNE       FAIR      45  33  63 NW16G25   30.18R
TORRINGTON     CLOUDY    51  36  56 N12G29    30.13R

$$




USA.gov is the U.S. government's official web portal to all federal, state and local government web resources and services.